Skagway, AK

7:58 AM AKST on February 27, 2017 (GMT -0900)
Skagway

Weather History for PAGY - August, 2014

Change the Weather History Date:

Tuesday, August 26, 2014

  Actual Average Record
Temperature  
Mean Temperature 57 °F -  
Max Temperature 59 °F 58 °F 75 °F (1987)
Min Temperature 55 °F 47 °F 39 °F (1965)
Degree Days  
Heating Degree Days 8    
Growing Degree Days 7 (Base 50)    
Moisture  
Dew Point 48 °F    
Average Humidity 73    
Maximum Humidity 83    
Minimum Humidity 62    
Precipitation  
Precipitation 0.04 in - - ()
Sea Level Pressure  
Sea Level Pressure 29.87 in    
Wind  
Wind Speed 18 mph (SSW)    
Max Wind Speed 26 mph    
Max Gust Speed 33 mph    
Visibility 10 miles    
Events Rain    
Averages and records for this station are not official NWS values.
T = Trace of Precipitation, MM = Missing Value Source: NWS Daily Summary

Daily Weather History Graph

Daily Weather History Graph

Search for Another Location

Airport or City:

Trip Planner

Search our weather history database for the weather conditions in past years. The results will help you decide how hot, cold, wet, or windy it might be!

Date:

Astronomy

Aug. 26, 2014 Rise Set
Actual Time 5:44 AM AKDT 8:20 PM AKDT
Civil Twilight 4:58 AM AKDT 9:05 PM AKDT
Nautical Twilight 3:57 AM AKDT 10:06 PM AKDT
Astronomical Twilight 2:30 AM AKDT 11:29 PM AKDT
Moon 7:19 AM AKDT (8/26) 8:11 PM AKDT (8/26)
Length of Visible Light 16h 07m
Length of Day
14h 36m
New Moon, 1% of the Moon is Illuminated
Aug 26
New Moon
Sep 2
First Quarter
Sep 8
Full
Sep 15
Last Quarter
Sep 23
New

Hourly Weather History & Observations

Time (AKDT) Temp. Dew Point Humidity Pressure Visibility Wind Dir Wind Speed Gust Speed Precip Events Conditions
12:53 AM 59.0 °F 46.0 °F 62% 29.83 in 10.0 mi SSW 16.1 mph - N/A   Overcast
1:53 AM 57.9 °F 46.9 °F 67% 29.82 in 10.0 mi SSW 17.3 mph 21.9 mph N/A   Mostly Cloudy
2:53 AM 57.9 °F 46.9 °F 67% 29.82 in 10.0 mi SSW 18.4 mph - N/A   Overcast
3:53 AM 57.0 °F 46.9 °F 69% 29.82 in 10.0 mi SSW 19.6 mph 27.6 mph N/A   Overcast
4:53 AM 57.0 °F 46.9 °F 69% 29.82 in 10.0 mi SSW 19.6 mph 25.3 mph N/A   Overcast
5:53 AM 57.0 °F 46.9 °F 69% 29.82 in 10.0 mi SSW 17.3 mph - N/A   Overcast
7:53 AM 55.0 °F 48.0 °F 77% 29.84 in 7.0 mi SSW 11.5 mph - 0.03 in Rain Light Rain
8:53 AM 55.0 °F 50.0 °F 83% 29.85 in 10.0 mi Variable 4.6 mph - 0.01 in   Overcast
9:53 AM 55.0 °F 48.0 °F 77% 29.84 in 10.0 mi SSW 19.6 mph 28.8 mph N/A   Overcast
10:53 AM 57.0 °F 50.0 °F 77% 29.86 in 10.0 mi SSW 20.7 mph 27.6 mph N/A   Overcast
11:53 AM 57.9 °F 48.0 °F 70% 29.87 in 10.0 mi SSW 24.2 mph 33.4 mph N/A   Overcast
12:53 PM 55.9 °F 48.0 °F 75% 29.88 in 10.0 mi SSW 26.5 mph 31.1 mph N/A   Overcast
1:53 PM 55.9 °F 48.0 °F 75% 29.89 in 10.0 mi SSW 23.0 mph 33.4 mph N/A   Overcast
2:53 PM 57.0 °F 48.0 °F 72% 29.89 in 10.0 mi SSW 24.2 mph 32.2 mph N/A   Overcast
3:53 PM 57.9 °F 48.9 °F 72% 29.89 in 10.0 mi SSW 20.7 mph - N/A   Overcast
4:53 PM 57.0 °F 48.0 °F 72% 29.89 in 10.0 mi SSW 23.0 mph 29.9 mph N/A   Overcast
5:53 PM 57.0 °F 48.9 °F 74% 29.90 in 10.0 mi SSW 19.6 mph 27.6 mph N/A   Overcast
6:53 PM 57.0 °F 48.9 °F 74% 29.90 in 10.0 mi SSW 19.6 mph 26.5 mph N/A   Overcast
7:53 PM 55.9 °F 48.9 °F 77% 29.91 in 10.0 mi SSW 19.6 mph 27.6 mph N/A   Overcast
8:53 PM 55.9 °F 48.9 °F 77% 29.93 in 10.0 mi SSW 12.7 mph - N/A   Overcast
9:53 PM 55.9 °F 48.9 °F 77% 29.94 in 10.0 mi SSW 13.8 mph 20.7 mph 0.00 in   Overcast
10:53 PM 55.0 °F 48.9 °F 80% 29.95 in 10.0 mi SSW 8.1 mph - N/A   Overcast
11:53 PM 55.9 °F 48.0 °F 75% 29.96 in 10.0 mi SSW 9.2 mph - N/A   Overcast